User: anonymous   Login
Location: Newark
(52.3333°N, 22.1833°E)
Time: 13:51:35
(UTC+00:00)
Language:

N. Korean satellite - Orbit

View from above orbital plane
View from above orbital plane
View from above satellite
View from above satellite

Ground track
Ground track

The orbit data is extracted from the following two-line orbital elements,

1 39026U 12072A   20218.73615873  .00001671  00000-0  61160-4 0  9998
2 39026  97.2246 214.0793 0039007  69.7073 290.8354 15.28712154424837
Epoch (UTC): 05 August 2020 17:40:04
Eccentricity: 0.0039007
inclination: 97.2246°
perigee height: 453 km
apogee height: 506 km
right ascension of ascending node: 214.0793°
argument of perigee: 69.7073°
revolutions per day: 15.28712154
mean anomaly at epoch: 290.8354°
orbit number at epoch: 42483

The dashed part of the orbit path shows where the satellite is in the earth's shadow,  

DLR